Time,TemperatureF,DewpointF,PressureIn,WindDirection,WindDirectionDegrees,WindSpeedMPH,WindSpeedGustMPH,Humidity,HourlyPrecipIn,Conditions,Clouds,dailyrainin,SoftwareType,DateUTC
2013-02-16 00:00:00,28.1,22.1,30.07,NNW,338,0.0,0.7,78,0.00,,,0.00,WUHU216HW,2013-02-16 05:00:00,
2013-02-16 00:05:00,27.9,22.2,30.06,NNW,338,0.0,0.7,79,0.00,,,0.00,WUHU216HW,2013-02-16 05:05:00,
2013-02-16 00:10:00,27.7,21.7,30.06,NNE,23,0.0,0.4,78,0.00,,,0.00,WUHU216HW,2013-02-16 05:10:00,
2013-02-16 00:15:00,27.5,21.3,30.06,NNE,23,0.0,0.0,77,0.00,,,0.00,WUHU216HW,2013-02-16 05:15:00,
2013-02-16 00:20:00,27.5,21.5,30.06,NNE,23,0.0,0.2,78,0.00,,,0.00,WUHU216HW,2013-02-16 05:20:00,
2013-02-16 00:23:00,27.4,21.3,30.06,NNE,23,0.0,0.2,78,0.00,,,0.00,WUHU216HW,2013-02-16 05:23:00,
2013-02-16 00:28:00,27.4,21.3,30.06,NNE,23,0.0,0.2,78,0.00,,,0.00,WUHU216HW,2013-02-16 05:28:00,
2013-02-16 00:33:00,27.4,21.7,30.06,NNE,23,0.0,0.2,79,0.00,,,0.00,WUHU216HW,2013-02-16 05:33:00,
2013-02-16 00:38:00,27.4,21.7,30.06,NNE,23,0.0,0.0,79,0.00,,,0.00,WUHU216HW,2013-02-16 05:38:00,
2013-02-16 00:43:00,27.4,21.7,30.06,NNE,23,0.0,0.0,79,0.00,,,0.00,WUHU216HW,2013-02-16 05:43:00,
2013-02-16 00:48:00,27.4,21.7,30.06,NNE,23,0.0,0.0,79,0.00,,,0.00,WUHU216HW,2013-02-16 05:48:00,
2013-02-16 00:53:00,27.4,21.7,30.06,NNE,23,0.4,0.4,79,0.00,,,0.00,WUHU216HW,2013-02-16 05:53:00,
2013-02-16 00:58:00,27.4,21.7,30.06,NNE,23,0.0,0.4,79,0.00,,,0.00,WUHU216HW,2013-02-16 05:58:00,
2013-02-16 01:03:00,27.4,21.7,30.06,NNE,23,0.2,0.4,79,0.00,,,0.00,WUHU216HW,2013-02-16 06:03:00,
2013-02-16 01:08:00,27.4,21.7,30.06,NW,315,1.3,1.3,79,0.00,,,0.00,WUHU216HW,2013-02-16 06:08:00,
2013-02-16 01:13:00,27.4,21.7,30.06,NNW,338,0.4,1.3,79,0.00,,,0.00,WUHU216HW,2013-02-16 06:13:00,
2013-02-16 01:18:00,27.4,21.7,30.06,ENE,68,0.7,0.7,79,0.00,,,0.00,WUHU216HW,2013-02-16 06:18:00,
2013-02-16 01:23:00,27.4,21.7,30.06,NNW,338,0.4,0.7,79,0.00,,,0.00,WUHU216HW,2013-02-16 06:23:00,
2013-02-16 01:28:00,27.4,21.7,30.06,NNW,338,0.0,0.4,79,0.00,,,0.00,WUHU216HW,2013-02-16 06:28:00,
2013-02-16 01:33:00,27.2,21.8,30.06,NNW,338,0.0,1.1,80,0.00,,,0.00,WUHU216HW,2013-02-16 06:33:00,
2013-02-16 01:38:00,27.0,21.6,30.06,NNW,338,0.2,1.1,80,0.00,,,0.00,WUHU216HW,2013-02-16 06:38:00,
2013-02-16 01:43:00,27.0,21.6,30.06,NNW,338,0.2,0.9,80,0.00,,,0.00,WUHU216HW,2013-02-16 06:43:00,
2013-02-16 01:48:00,27.0,21.6,30.06,North,0,0.4,0.9,80,0.00,,,0.00,WUHU216HW,2013-02-16 06:48:00,
2013-02-16 01:53:00,27.0,21.6,30.06,NNW,338,0.4,0.9,80,0.00,,,0.00,WUHU216HW,2013-02-16 06:53:00,
2013-02-16 01:58:00,27.0,21.6,30.06,North,0,0.0,0.9,80,0.00,,,0.00,WUHU216HW,2013-02-16 06:58:00,
2013-02-16 02:03:00,27.0,21.6,30.06,North,0,0.4,0.4,80,0.00,,,0.00,WUHU216HW,2013-02-16 07:03:00,
2013-02-16 02:08:00,27.0,21.6,30.06,NNW,338,0.4,1.6,80,0.00,,,0.00,WUHU216HW,2013-02-16 07:08:00,
2013-02-16 02:13:00,26.8,21.4,30.06,ENE,68,0.2,1.6,80,0.00,,,0.00,WUHU216HW,2013-02-16 07:13:00,
2013-02-16 02:18:00,26.8,21.4,30.05,ENE,68,0.0,0.2,80,0.00,,,0.00,WUHU216HW,2013-02-16 07:18:00,
2013-02-16 02:23:00,26.8,21.2,30.05,ENE,68,0.0,0.2,79,0.00,,,0.00,WUHU216HW,2013-02-16 07:23:00,
2013-02-16 02:28:00,26.6,21.2,30.05,NE,45,0.2,0.2,80,0.00,,,0.00,WUHU216HW,2013-02-16 07:28:00,
2013-02-16 02:33:00,26.6,21.0,30.05,NNE,23,0.0,0.4,79,0.00,,,0.00,WUHU216HW,2013-02-16 07:33:00,
2013-02-16 02:38:00,26.6,21.0,30.05,NNE,23,0.0,0.4,79,0.00,,,0.00,WUHU216HW,2013-02-16 07:38:00,
2013-02-16 02:43:00,26.5,20.8,30.05,NNE,23,0.0,0.2,79,0.00,,,0.00,WUHU216HW,2013-02-16 07:43:00,
2013-02-16 02:48:00,26.5,20.8,30.05,NNE,23,0.0,0.2,79,0.00,,,0.00,WUHU216HW,2013-02-16 07:48:00,
2013-02-16 02:53:00,26.3,20.6,30.05,NNE,23,0.0,0.2,79,0.00,,,0.00,WUHU216HW,2013-02-16 07:53:00,
2013-02-16 02:58:00,26.3,20.6,30.05,NNE,23,0.0,0.4,79,0.00,,,0.00,WUHU216HW,2013-02-16 07:58:00,
2013-02-16 03:03:00,26.3,20.6,30.05,NNE,23,0.0,0.4,79,0.00,,,0.00,WUHU216HW,2013-02-16 08:03:00,
2013-02-16 03:08:00,26.5,20.8,30.05,NNE,23,0.0,0.2,79,0.00,,,0.00,WUHU216HW,2013-02-16 08:08:00,
2013-02-16 03:13:00,26.3,20.6,30.04,North,0,0.7,0.7,79,0.00,,,0.00,WUHU216HW,2013-02-16 08:13:00,
2013-02-16 03:18:00,26.3,20.6,30.04,NNW,338,0.0,0.7,79,0.00,,,0.00,WUHU216HW,2013-02-16 08:18:00,
2013-02-16 03:23:00,26.1,20.8,30.04,NNW,338,0.0,0.4,80,0.00,,,0.00,WUHU216HW,2013-02-16 08:23:00,
2013-02-16 03:28:00,25.9,20.6,30.04,NNW,338,0.0,0.2,80,0.00,,,0.00,WUHU216HW,2013-02-16 08:28:00,
2013-02-16 03:33:00,25.9,20.6,30.04,NNW,338,0.0,0.2,80,0.00,,,0.00,WUHU216HW,2013-02-16 08:33:00,
2013-02-16 03:38:00,25.9,20.6,30.04,NNW,338,0.0,0.2,80,0.00,,,0.00,WUHU216HW,2013-02-16 08:38:00,
2013-02-16 03:43:00,25.9,20.6,30.04,NNW,338,0.0,0.2,80,0.00,,,0.00,WUHU216HW,2013-02-16 08:43:00,
2013-02-16 03:48:00,25.9,20.9,30.03,NNW,338,0.2,0.2,81,0.00,,,0.00,WUHU216HW,2013-02-16 08:48:00,
2013-02-16 03:53:00,25.9,20.9,30.03,NNE,23,0.2,0.2,81,0.00,,,0.00,WUHU216HW,2013-02-16 08:53:00,
2013-02-16 03:58:00,25.9,20.9,30.03,North,0,0.0,0.4,81,0.00,,,0.00,WUHU216HW,2013-02-16 08:58:00,
2013-02-16 04:03:00,26.1,20.8,30.04,NNE,23,0.2,0.4,80,0.00,,,0.00,WUHU216HW,2013-02-16 09:03:00,
2013-02-16 04:08:00,25.9,20.6,30.04,North,0,0.0,0.4,80,0.00,,,0.00,WUHU216HW,2013-02-16 09:08:00,
2013-02-16 04:13:00,25.9,20.6,30.04,NW,315,0.0,0.4,80,0.00,,,0.00,WUHU216HW,2013-02-16 09:13:00,
2013-02-16 04:18:00,25.9,20.3,30.03,NW,315,0.4,0.4,79,0.00,,,0.00,WUHU216HW,2013-02-16 09:18:00,
2013-02-16 04:23:00,25.9,20.3,30.03,NNE,23,0.2,0.4,79,0.00,,,0.00,WUHU216HW,2013-02-16 09:23:00,
2013-02-16 04:28:00,25.7,20.4,30.03,NNE,23,0.0,0.4,80,0.00,,,0.00,WUHU216HW,2013-02-16 09:28:00,
2013-02-16 04:33:00,25.7,20.4,30.03,NNE,23,0.0,0.4,80,0.00,,,0.00,WUHU216HW,2013-02-16 09:33:00,
2013-02-16 04:38:00,25.6,20.3,30.03,NNE,23,0.0,0.4,80,0.00,,,0.00,WUHU216HW,2013-02-16 09:38:00,
2013-02-16 04:43:00,25.6,20.3,30.03,NNE,23,0.0,0.4,80,0.00,,,0.00,WUHU216HW,2013-02-16 09:43:00,
2013-02-16 04:48:00,25.6,20.5,30.03,NNE,23,0.0,0.4,81,0.00,,,0.00,WUHU216HW,2013-02-16 09:48:00,
2013-02-16 04:53:00,25.6,20.3,30.03,NNE,23,0.0,0.2,80,0.00,,,0.00,WUHU216HW,2013-02-16 09:53:00,
2013-02-16 04:58:00,25.6,20.3,30.04,NE,45,0.0,0.4,80,0.00,,,0.00,WUHU216HW,2013-02-16 09:58:00,
2013-02-16 05:03:00,25.6,20.3,30.04,NE,45,0.0,0.4,80,0.00,,,0.00,WUHU216HW,2013-02-16 10:03:00,
2013-02-16 05:08:00,25.6,20.3,30.04,NNE,23,0.0,0.4,80,0.00,,,0.00,WUHU216HW,2013-02-16 10:08:00,
2013-02-16 05:13:00,25.6,20.3,30.04,NNE,23,0.0,0.4,80,0.00,,,0.00,WUHU216HW,2013-02-16 10:13:00,
2013-02-16 05:18:00,25.6,20.3,30.03,NNE,23,0.0,0.2,80,0.00,,,0.00,WUHU216HW,2013-02-16 10:18:00,
2013-02-16 05:23:00,25.6,20.3,30.03,NNE,23,0.0,0.0,80,0.00,,,0.00,WUHU216HW,2013-02-16 10:23:00,
2013-02-16 05:28:00,25.6,20.3,30.03,NNE,23,0.0,0.7,80,0.00,,,0.00,WUHU216HW,2013-02-16 10:28:00,
2013-02-16 05:33:00,25.6,20.5,30.03,NNE,23,0.0,0.7,81,0.00,,,0.00,WUHU216HW,2013-02-16 10:33:00,
2013-02-16 05:38:00,25.6,20.5,30.03,NNE,23,0.0,0.2,81,0.00,,,0.00,WUHU216HW,2013-02-16 10:38:00,
2013-02-16 05:43:00,25.6,20.3,30.03,ENE,68,0.2,0.7,80,0.00,,,0.00,WUHU216HW,2013-02-16 10:43:00,
2013-02-16 05:48:00,25.6,20.3,30.03,ENE,68,0.2,0.7,80,0.00,,,0.00,WUHU216HW,2013-02-16 10:48:00,
2013-02-16 05:53:00,25.6,20.3,30.03,ENE,68,0.0,0.2,80,0.00,,,0.00,WUHU216HW,2013-02-16 10:53:00,
2013-02-16 05:58:00,25.6,20.0,30.03,ENE,68,0.0,0.2,79,0.00,,,0.00,WUHU216HW,2013-02-16 10:58:00,
2013-02-16 06:03:00,25.4,19.8,30.03,ENE,68,0.0,0.2,79,0.00,,,0.00,WUHU216HW,2013-02-16 11:03:00,
2013-02-16 06:08:00,25.4,19.8,30.03,ENE,68,0.0,0.2,79,0.00,,,0.00,WUHU216HW,2013-02-16 11:08:00,
2013-02-16 06:13:00,25.4,19.8,30.03,ENE,68,0.0,0.2,79,0.00,,,0.00,WUHU216HW,2013-02-16 11:13:00,
2013-02-16 06:18:00,25.4,19.4,30.03,ENE,68,0.0,0.2,78,0.00,,,0.00,WUHU216HW,2013-02-16 11:18:00,
2013-02-16 06:23:00,25.2,19.3,30.03,ENE,68,0.0,0.2,78,0.00,,,0.00,WUHU216HW,2013-02-16 11:23:00,
2013-02-16 06:28:00,25.2,19.3,30.03,ENE,68,0.0,0.2,78,0.00,,,0.00,WUHU216HW,2013-02-16 11:28:00,
2013-02-16 06:33:00,25.4,19.4,30.03,ENE,68,0.0,0.0,78,0.00,,,0.00,WUHU216HW,2013-02-16 11:33:00,
2013-02-16 06:38:00,25.4,19.4,30.03,ENE,68,0.0,0.0,78,0.00,,,0.00,WUHU216HW,2013-02-16 11:38:00,
2013-02-16 06:43:00,25.6,20.0,30.03,ENE,68,0.0,0.0,79,0.00,,,0.00,WUHU216HW,2013-02-16 11:43:00,
2013-02-16 06:48:00,25.6,19.4,30.03,NNW,338,0.2,1.1,77,0.00,,,0.00,WUHU216HW,2013-02-16 11:48:00,
2013-02-16 06:53:00,25.4,19.2,30.03,NE,45,0.2,1.1,77,0.00,,,0.00,WUHU216HW,2013-02-16 11:53:00,
2013-02-16 06:58:00,25.2,19.0,30.04,NE,45,0.0,0.2,77,0.00,,,0.00,WUHU216HW,2013-02-16 11:58:00,
2013-02-16 07:03:00,25.2,19.0,30.03,NE,45,0.0,0.2,77,0.00,,,0.00,WUHU216HW,2013-02-16 12:03:00,
2013-02-16 07:08:00,25.4,19.4,30.04,NE,45,0.0,0.0,78,0.00,,,0.00,WUHU216HW,2013-02-16 12:08:00,
2013-02-16 07:13:00,25.6,19.6,30.04,NE,45,0.0,0.0,78,0.00,,,0.00,WUHU216HW,2013-02-16 12:13:00,
2013-02-16 07:18:00,25.4,19.2,30.04,NE,45,0.0,0.0,77,0.00,,,0.00,WUHU216HW,2013-02-16 12:18:00,
2013-02-16 07:23:00,25.6,19.4,30.04,NE,45,0.0,0.2,77,0.00,,,0.00,WUHU216HW,2013-02-16 12:23:00,
2013-02-16 07:28:00,25.4,19.2,30.04,NE,45,0.0,0.2,77,0.00,,,0.00,WUHU216HW,2013-02-16 12:28:00,
2013-02-16 07:33:00,25.6,19.4,30.04,NE,45,0.0,0.2,77,0.00,,,0.00,WUHU216HW,2013-02-16 12:33:00,
2013-02-16 07:38:00,25.6,19.4,30.04,NE,45,0.0,0.0,77,0.00,,,0.00,WUHU216HW,2013-02-16 12:38:00,
2013-02-16 07:43:00,25.6,19.4,30.04,NE,45,0.0,0.0,77,0.00,,,0.00,WUHU216HW,2013-02-16 12:43:00,
2013-02-16 07:48:00,25.6,19.4,30.04,NE,45,0.0,0.0,77,0.00,,,0.00,WUHU216HW,2013-02-16 12:48:00,
2013-02-16 07:53:00,25.9,19.6,30.04,NE,45,0.0,0.0,77,0.00,,,0.00,WUHU216HW,2013-02-16 12:53:00,
2013-02-16 07:58:00,26.3,20.0,30.04,NE,45,0.0,0.0,77,0.00,,,0.00,WUHU216HW,2013-02-16 12:58:00,
2013-02-16 08:03:00,26.5,20.2,30.04,NE,45,0.0,0.0,77,0.00,,,0.00,WUHU216HW,2013-02-16 13:03:00,
2013-02-16 08:08:00,26.5,20.2,30.04,NE,45,0.0,0.0,77,0.00,,,0.00,WUHU216HW,2013-02-16 13:08:00,
2013-02-16 08:13:00,27.0,20.7,30.04,NE,45,0.0,0.0,77,0.00,,,0.00,WUHU216HW,2013-02-16 13:13:00,
2013-02-16 08:18:00,27.4,21.1,30.04,NE,45,0.0,0.0,77,0.00,,,0.00,WUHU216HW,2013-02-16 13:18:00,
2013-02-16 08:23:00,27.5,21.3,30.04,NE,45,0.2,0.2,77,0.00,,,0.00,WUHU216HW,2013-02-16 13:23:00,
2013-02-16 08:28:00,27.9,21.6,30.04,NE,45,0.0,0.2,77,0.00,,,0.00,WUHU216HW,2013-02-16 13:28:00,
2013-02-16 08:33:00,28.1,21.8,30.04,NE,45,0.2,0.2,77,0.00,,,0.00,WUHU216HW,2013-02-16 13:33:00,
2013-02-16 08:38:00,28.4,22.2,30.04,NE,45,0.0,0.2,77,0.00,,,0.00,WUHU216HW,2013-02-16 13:38:00,
2013-02-16 08:43:00,28.8,22.5,30.04,NE,45,0.0,0.0,77,0.00,,,0.00,WUHU216HW,2013-02-16 13:43:00,
2013-02-16 08:48:00,29.0,22.3,30.04,WSW,248,0.2,0.4,76,0.00,,,0.00,WUHU216HW,2013-02-16 13:48:00,
2013-02-16 08:53:00,28.8,22.1,30.04,WSW,248,0.0,0.4,76,0.00,,,0.00,WUHU216HW,2013-02-16 13:53:00,
2013-02-16 08:58:00,28.8,22.1,30.03,WSW,248,0.0,0.4,76,0.00,,,0.00,WUHU216HW,2013-02-16 13:58:00,
2013-02-16 09:03:00,28.8,22.1,30.03,WSW,248,0.0,0.4,76,0.00,,,0.00,WUHU216HW,2013-02-16 14:03:00,
2013-02-16 09:08:00,29.2,22.5,30.03,WSW,248,1.3,1.3,76,0.00,,,0.00,WUHU216HW,2013-02-16 14:08:00,
2013-02-16 09:13:00,29.3,22.7,30.03,SW,225,1.1,1.3,76,0.00,,,0.00,WUHU216HW,2013-02-16 14:13:00,
2013-02-16 09:18:00,29.3,22.7,30.03,West,270,0.4,1.1,76,0.00,,,0.00,WUHU216HW,2013-02-16 14:18:00,
2013-02-16 09:23:00,29.0,22.1,30.03,West,270,0.4,0.4,75,0.00,,,0.00,WUHU216HW,2013-02-16 14:23:00,
2013-02-16 09:28:00,28.4,21.3,30.03,NNW,338,0.0,1.1,74,0.00,,,0.00,WUHU216HW,2013-02-16 14:28:00,
2013-02-16 09:33:00,28.3,21.1,30.03,NNW,338,0.0,1.1,74,0.00,,,0.00,WUHU216HW,2013-02-16 14:33:00,
2013-02-16 09:38:00,28.4,21.5,30.03,West,270,0.0,0.4,75,0.00,,,0.00,WUHU216HW,2013-02-16 14:38:00,
2013-02-16 09:43:00,28.4,20.9,30.03,WNW,293,0.7,0.7,73,0.00,,,0.00,WUHU216HW,2013-02-16 14:43:00,
2013-02-16 09:48:00,28.3,20.1,30.03,WSW,248,0.4,0.7,71,0.00,,,0.00,WUHU216HW,2013-02-16 14:48:00,
2013-02-16 09:53:00,28.4,20.3,30.03,NNW,338,0.7,1.3,71,0.00,,,0.00,WUHU216HW,2013-02-16 14:53:00,
2013-02-16 09:58:00,28.6,21.1,30.03,WSW,248,0.0,1.3,73,0.00,,,0.00,WUHU216HW,2013-02-16 14:58:00,
2013-02-16 10:03:00,28.8,20.6,30.03,WSW,248,0.0,1.3,71,0.00,,,0.00,WUHU216HW,2013-02-16 15:03:00,
2013-02-16 10:08:00,28.8,20.9,30.03,WSW,248,0.0,0.2,72,0.00,,,0.00,WUHU216HW,2013-02-16 15:08:00,
2013-02-16 10:13:00,29.2,21.2,30.03,WSW,248,0.2,1.1,72,0.00,,,0.00,WUHU216HW,2013-02-16 15:13:00,
2013-02-16 10:18:00,29.2,21.0,30.03,NW,315,0.0,1.1,71,0.00,,,0.00,WUHU216HW,2013-02-16 15:18:00,
2013-02-16 10:23:00,29.2,20.3,30.02,NE,45,0.4,1.1,69,0.00,,,0.00,WUHU216HW,2013-02-16 15:23:00,
2013-02-16 10:28:00,29.5,20.3,30.03,North,0,0.4,1.1,68,0.00,,,0.00,WUHU216HW,2013-02-16 15:28:00,
2013-02-16 10:33:00,29.9,19.8,30.02,NW,315,0.0,0.9,66,0.01,,,0.01,WUHU216HW,2013-02-16 15:33:00,
2013-02-16 10:38:00,30.4,20.3,30.02,NNW,338,1.8,2.5,66,0.02,,,0.02,WUHU216HW,2013-02-16 15:38:00,
2013-02-16 10:43:00,30.6,20.5,30.02,NW,315,0.0,2.5,66,0.03,,,0.03,WUHU216HW,2013-02-16 15:43:00,
2013-02-16 10:48:00,30.6,20.2,30.02,WNW,293,0.2,2.2,65,0.03,,,0.03,WUHU216HW,2013-02-16 15:48:00,
2013-02-16 10:53:00,30.1,18.9,30.02,NW,315,0.4,2.2,63,0.03,,,0.03,WUHU216HW,2013-02-16 15:53:00,
2013-02-16 10:58:00,30.2,19.8,30.02,NNW,338,1.8,2.2,65,0.03,,,0.03,WUHU216HW,2013-02-16 15:58:00,
2013-02-16 11:03:00,30.4,20.0,30.02,NW,315,1.1,1.8,65,0.03,,,0.03,WUHU216HW,2013-02-16 16:03:00,
2013-02-16 11:08:00,29.9,19.4,30.02,NNW,338,0.4,2.2,65,0.04,,,0.04,WUHU216HW,2013-02-16 16:08:00,
2013-02-16 11:13:00,30.1,20.0,30.02,NW,315,0.4,2.2,66,0.04,,,0.04,WUHU216HW,2013-02-16 16:13:00,
2013-02-16 11:18:00,29.9,19.8,30.01,NW,315,0.0,2.0,66,0.04,,,0.04,WUHU216HW,2013-02-16 16:18:00,
2013-02-16 11:23:00,30.1,20.0,30.01,West,270,0.2,0.4,66,0.04,,,0.04,WUHU216HW,2013-02-16 16:23:00,
2013-02-16 11:28:00,30.8,20.7,30.01,West,270,0.0,0.4,66,0.03,,,0.04,WUHU216HW,2013-02-16 16:28:00,
2013-02-16 11:33:00,31.3,20.9,30.01,West,270,0.7,2.7,65,0.03,,,0.04,WUHU216HW,2013-02-16 16:33:00,
2013-02-16 11:38:00,31.3,19.8,30.00,NW,315,0.0,2.7,62,0.02,,,0.04,WUHU216HW,2013-02-16 16:38:00,
2013-02-16 11:43:00,31.3,20.2,30.00,NNW,338,1.1,2.5,63,0.02,,,0.06,WUHU216HW,2013-02-16 16:43:00,
2013-02-16 11:48:00,30.8,19.3,30.00,West,270,0.4,1.6,62,0.02,,,0.06,WUHU216HW,2013-02-16 16:48:00,
2013-02-16 11:53:00,30.2,19.1,30.00,NW,315,0.0,2.5,63,0.02,,,0.06,WUHU216HW,2013-02-16 16:53:00,
2013-02-16 11:58:00,30.6,19.4,30.00,NNW,338,0.0,2.5,63,0.02,,,0.06,WUHU216HW,2013-02-16 16:58:00,
2013-02-16 12:03:00,30.4,18.9,29.99,NNW,338,0.4,2.0,62,0.01,,,0.06,WUHU216HW,2013-02-16 17:03:00,
2013-02-16 12:08:00,30.6,19.1,29.99,West,270,0.9,2.5,62,0.01,,,0.06,WUHU216HW,2013-02-16 17:08:00,
2013-02-16 12:13:00,31.0,19.8,29.99,NNW,338,0.0,2.5,63,0.01,,,0.06,WUHU216HW,2013-02-16 17:13:00,
2013-02-16 12:18:00,31.5,20.0,29.99,NNW,338,0.2,1.3,62,0.01,,,0.06,WUHU216HW,2013-02-16 17:18:00,
2013-02-16 12:23:00,30.6,17.9,29.99,NW,315,0.9,2.5,59,0.01,,,0.06,WUHU216HW,2013-02-16 17:23:00,
2013-02-16 12:28:00,29.7,17.9,29.98,NW,315,0.9,2.5,61,0.01,,,0.06,WUHU216HW,2013-02-16 17:28:00,
2013-02-16 12:33:00,29.5,18.1,29.98,NNW,338,0.0,1.6,62,0.01,,,0.06,WUHU216HW,2013-02-16 17:33:00,
2013-02-16 12:38:00,30.4,17.7,29.98,WNW,293,1.3,2.0,59,0.01,,,0.06,WUHU216HW,2013-02-16 17:38:00,
2013-02-16 12:43:00,30.8,18.9,29.98,WNW,293,0.2,2.5,61,0.00,,,0.06,WUHU216HW,2013-02-16 17:43:00,
2013-02-16 12:48:00,30.8,17.7,29.98,NNW,338,0.4,2.5,58,0.00,,,0.06,WUHU216HW,2013-02-16 17:48:00,
2013-02-16 12:53:00,30.1,16.6,29.97,NW,315,0.9,2.0,57,0.00,,,0.06,WUHU216HW,2013-02-16 17:53:00,
2013-02-16 12:58:00,29.7,17.6,29.97,NNW,338,0.4,2.0,60,0.00,,,0.06,WUHU216HW,2013-02-16 17:58:00,
2013-02-16 13:03:00,29.3,16.7,29.97,NW,315,0.0,1.6,59,0.00,,,0.06,WUHU216HW,2013-02-16 18:03:00,
2013-02-16 13:08:00,29.2,14.9,29.97,NW,315,1.1,2.5,55,0.00,,,0.06,WUHU216HW,2013-02-16 18:08:00,
2013-02-16 13:13:00,29.2,14.9,29.96,NNW,338,1.3,2.5,55,0.00,,,0.06,WUHU216HW,2013-02-16 18:13:00,
2013-02-16 13:18:00,29.5,14.9,29.96,NW,315,0.9,2.0,54,0.00,,,0.06,WUHU216HW,2013-02-16 18:18:00,
2013-02-16 13:23:00,29.5,15.7,29.96,WNW,293,0.0,2.0,56,0.00,,,0.06,WUHU216HW,2013-02-16 18:23:00,
2013-02-16 13:28:00,30.1,16.6,29.96,WSW,248,1.8,1.8,57,0.00,,,0.06,WUHU216HW,2013-02-16 18:28:00,
2013-02-16 13:33:00,30.4,16.6,29.96,NW,315,0.0,1.8,56,0.00,,,0.06,WUHU216HW,2013-02-16 18:33:00,
2013-02-16 13:38:00,30.8,16.8,29.96,NNW,338,2.5,2.5,56,0.00,,,0.06,WUHU216HW,2013-02-16 18:38:00,
2013-02-16 13:43:00,30.6,15.8,29.96,West,270,1.1,2.5,54,0.00,,,0.06,WUHU216HW,2013-02-16 18:43:00,
2013-02-16 13:48:00,30.6,15.0,29.95,NNW,338,2.5,2.5,52,0.00,,,0.06,WUHU216HW,2013-02-16 18:48:00,
2013-02-16 13:53:00,29.9,14.8,29.96,NNW,338,3.8,3.8,53,0.00,,,0.06,WUHU216HW,2013-02-16 18:53:00,
2013-02-16 13:58:00,29.5,14.9,29.96,SE,135,0.9,3.8,54,0.00,,,0.06,WUHU216HW,2013-02-16 18:58:00,
2013-02-16 14:03:00,29.3,14.3,29.96,NNW,338,1.1,2.0,53,0.00,,,0.06,WUHU216HW,2013-02-16 19:03:00,
2013-02-16 14:08:00,29.2,14.9,29.95,NW,315,0.4,1.3,55,0.00,,,0.06,WUHU216HW,2013-02-16 19:08:00,
2013-02-16 14:13:00,29.2,14.9,29.95,North,0,2.2,2.2,55,0.00,,,0.06,WUHU216HW,2013-02-16 19:13:00,
2013-02-16 14:18:00,29.0,14.8,29.95,NNW,338,0.0,2.2,55,0.00,,,0.06,WUHU216HW,2013-02-16 19:18:00,
2013-02-16 14:23:00,29.2,15.4,29.95,North,0,0.7,2.9,56,0.00,,,0.06,WUHU216HW,2013-02-16 19:23:00,
2013-02-16 14:28:00,29.0,16.0,29.95,NNW,338,4.3,4.3,58,0.00,,,0.06,WUHU216HW,2013-02-16 19:28:00,
2013-02-16 14:33:00,28.6,16.1,29.95,NE,45,0.2,4.3,59,0.00,,,0.06,WUHU216HW,2013-02-16 19:33:00,
2013-02-16 14:38:00,28.8,15.8,29.95,NW,315,0.2,1.8,58,0.00,,,0.06,WUHU216HW,2013-02-16 19:38:00,
2013-02-16 14:43:00,29.0,15.7,29.95,NNW,338,1.6,1.6,57,0.00,,,0.06,WUHU216HW,2013-02-16 19:43:00,
2013-02-16 14:48:00,29.2,15.8,29.94,NNW,338,0.9,1.6,57,0.00,,,0.06,WUHU216HW,2013-02-16 19:48:00,
2013-02-16 14:53:00,29.0,15.2,29.95,NNW,338,0.4,2.0,56,0.00,,,0.06,WUHU216HW,2013-02-16 19:53:00,
2013-02-16 14:58:00,29.0,16.0,29.95,NNW,338,0.9,2.0,58,0.00,,,0.06,WUHU216HW,2013-02-16 19:58:00,
2013-02-16 15:03:00,29.2,16.2,29.95,NW,315,1.8,1.8,58,0.00,,,0.06,WUHU216HW,2013-02-16 20:03:00,
2013-02-16 15:08:00,29.2,16.2,29.95,ENE,68,3.8,3.8,58,0.00,,,0.06,WUHU216HW,2013-02-16 20:08:00,
2013-02-16 15:13:00,29.0,16.0,29.95,NNW,338,1.6,3.8,58,0.00,,,0.06,WUHU216HW,2013-02-16 20:13:00,
2013-02-16 15:18:00,28.8,15.8,29.95,NW,315,1.3,1.6,58,0.00,,,0.06,WUHU216HW,2013-02-16 20:18:00,
2013-02-16 15:23:00,28.8,15.8,29.95,North,0,1.8,1.8,58,0.00,,,0.06,WUHU216HW,2013-02-16 20:23:00,
2013-02-16 15:28:00,28.8,16.3,29.95,NW,315,0.0,1.8,59,0.00,,,0.06,WUHU216HW,2013-02-16 20:28:00,
2013-02-16 15:33:00,29.0,16.5,29.95,North,0,0.4,1.8,59,0.00,,,0.06,WUHU216HW,2013-02-16 20:33:00,
2013-02-16 15:38:00,28.8,16.3,29.95,NNW,338,3.4,3.4,59,0.00,,,0.06,WUHU216HW,2013-02-16 20:38:00,
2013-02-16 15:43:00,28.4,16.4,29.95,NNW,338,0.4,4.7,60,0.00,,,0.06,WUHU216HW,2013-02-16 20:43:00,
2013-02-16 15:48:00,28.4,15.9,29.95,NW,315,0.4,4.7,59,0.00,,,0.06,WUHU216HW,2013-02-16 20:48:00,
2013-02-16 15:53:00,28.6,16.6,29.95,NNW,338,0.4,0.9,60,0.00,,,0.06,WUHU216HW,2013-02-16 20:53:00,
2013-02-16 15:58:00,28.8,17.1,29.95,North,0,0.2,2.5,61,0.00,,,0.06,WUHU216HW,2013-02-16 20:58:00,
2013-02-16 16:03:00,28.8,17.1,29.95,NNW,338,0.9,2.5,61,0.00,,,0.06,WUHU216HW,2013-02-16 21:03:00,
2013-02-16 16:08:00,29.2,16.7,29.95,NNW,338,0.4,1.3,59,0.00,,,0.06,WUHU216HW,2013-02-16 21:08:00,
2013-02-16 16:13:00,29.2,16.7,29.95,West,270,1.1,1.3,59,0.00,,,0.06,WUHU216HW,2013-02-16 21:13:00,
2013-02-16 16:18:00,29.2,16.2,29.95,West,270,0.2,1.3,58,0.00,,,0.06,WUHU216HW,2013-02-16 21:18:00,
2013-02-16 16:23:00,29.0,15.7,29.96,WNW,293,1.3,3.4,57,0.00,,,0.06,WUHU216HW,2013-02-16 21:23:00,
2013-02-16 16:28:00,28.6,15.3,29.96,NNW,338,2.9,3.4,57,0.00,,,0.06,WUHU216HW,2013-02-16 21:28:00,
2013-02-16 16:33:00,28.6,15.8,29.96,NNW,338,0.0,2.9,58,0.00,,,0.06,WUHU216HW,2013-02-16 21:33:00,
2013-02-16 16:38:00,28.4,15.1,29.96,NW,315,0.0,2.5,57,0.00,,,0.06,WUHU216HW,2013-02-16 21:38:00,
2013-02-16 16:43:00,28.4,15.1,29.96,NW,315,2.9,2.9,57,0.00,,,0.06,WUHU216HW,2013-02-16 21:43:00,
2013-02-16 16:48:00,28.3,14.9,29.96,NW,315,1.1,2.9,57,0.00,,,0.06,WUHU216HW,2013-02-16 21:48:00,
2013-02-16 16:53:00,28.3,14.9,29.96,West,270,0.2,1.8,57,0.00,,,0.06,WUHU216HW,2013-02-16 21:53:00,
2013-02-16 16:58:00,28.3,15.4,29.96,NW,315,0.2,1.8,58,0.00,,,0.06,WUHU216HW,2013-02-16 21:58:00,
2013-02-16 17:03:00,28.3,14.9,29.96,NW,315,0.4,1.3,57,0.00,,,0.06,WUHU216HW,2013-02-16 22:03:00,
2013-02-16 17:08:00,28.4,14.8,29.96,NNW,338,0.2,0.7,56,0.00,,,0.06,WUHU216HW,2013-02-16 22:08:00,
2013-02-16 17:13:00,28.3,14.6,29.96,NNW,338,0.0,0.7,56,0.00,,,0.06,WUHU216HW,2013-02-16 22:13:00,
2013-02-16 17:18:00,28.4,14.8,29.96,NNW,338,0.0,0.4,56,0.00,,,0.06,WUHU216HW,2013-02-16 22:18:00,
2013-02-16 17:23:00,28.3,13.7,29.96,WNW,293,0.4,1.8,54,0.00,,,0.06,WUHU216HW,2013-02-16 22:23:00,
2013-02-16 17:28:00,28.1,13.5,29.96,NW,315,0.2,2.5,54,0.00,,,0.06,WUHU216HW,2013-02-16 22:28:00,
2013-02-16 17:33:00,28.1,13.5,29.96,NW,315,1.1,2.5,54,0.00,,,0.06,WUHU216HW,2013-02-16 22:33:00,
2013-02-16 17:38:00,27.9,13.0,29.96,West,270,2.9,2.9,53,0.00,,,0.06,WUHU216HW,2013-02-16 22:38:00,
2013-02-16 17:43:00,27.7,12.3,29.96,NNW,338,0.2,2.9,52,0.00,,,0.06,WUHU216HW,2013-02-16 22:43:00,
2013-02-16 17:48:00,27.7,12.8,29.96,NW,315,0.4,2.9,53,0.00,,,0.06,WUHU216HW,2013-02-16 22:48:00,
2013-02-16 17:53:00,27.7,12.8,29.96,NW,315,0.2,2.0,53,0.00,,,0.06,WUHU216HW,2013-02-16 22:53:00,
2013-02-16 17:58:00,27.5,13.4,29.96,NW,315,0.2,4.7,55,0.00,,,0.06,WUHU216HW,2013-02-16 22:58:00,
2013-02-16 18:03:00,27.4,13.7,29.96,NNW,338,0.7,4.7,56,0.00,,,0.06,WUHU216HW,2013-02-16 23:03:00,
2013-02-16 18:08:00,27.0,12.9,29.96,North,0,0.0,1.1,55,0.00,,,0.06,WUHU216HW,2013-02-16 23:08:00,
2013-02-16 18:13:00,26.8,12.7,29.96,North,0,0.0,0.9,55,0.00,,,0.06,WUHU216HW,2013-02-16 23:13:00,
2013-02-16 18:18:00,26.6,13.0,29.96,North,0,0.0,0.7,56,0.00,,,0.06,WUHU216HW,2013-02-16 23:18:00,
2013-02-16 18:23:00,26.5,12.8,29.97,North,0,0.0,0.2,56,0.00,,,0.06,WUHU216HW,2013-02-16 23:23:00,
2013-02-16 18:28:00,26.3,12.6,29.97,North,0,0.0,0.2,56,0.00,,,0.06,WUHU216HW,2013-02-16 23:28:00,
2013-02-16 18:33:00,26.3,12.6,29.97,North,0,0.0,0.0,56,0.00,,,0.06,WUHU216HW,2013-02-16 23:33:00,
2013-02-16 18:38:00,26.1,12.9,29.97,North,0,0.2,0.2,57,0.00,,,0.06,WUHU216HW,2013-02-16 23:38:00,
2013-02-16 18:43:00,25.9,12.7,29.97,North,0,0.0,0.2,57,0.00,,,0.06,WUHU216HW,2013-02-16 23:43:00,
2013-02-16 18:48:00,25.7,12.5,29.97,North,0,0.0,0.0,57,0.00,,,0.06,WUHU216HW,2013-02-16 23:48:00,
2013-02-16 18:53:00,25.6,12.8,29.97,North,0,0.0,0.0,58,0.00,,,0.06,WUHU216HW,2013-02-16 23:53:00,
2013-02-16 18:58:00,25.6,12.8,29.97,North,0,0.0,0.0,58,0.00,,,0.06,WUHU216HW,2013-02-16 23:58:00,
2013-02-16 19:03:00,25.4,12.6,29.97,North,0,0.0,0.0,58,0.00,,,0.06,WUHU216HW,2013-02-17 00:03:00,
2013-02-16 19:08:00,25.0,12.7,29.97,North,0,0.0,0.0,59,0.00,,,0.06,WUHU216HW,2013-02-17 00:08:00,
2013-02-16 19:13:00,25.0,13.2,29.97,North,0,0.0,0.0,60,0.00,,,0.06,WUHU216HW,2013-02-17 00:13:00,
2013-02-16 19:18:00,24.8,12.5,29.97,North,0,0.0,0.2,59,0.00,,,0.06,WUHU216HW,2013-02-17 00:18:00,
2013-02-16 19:23:00,24.8,13.0,29.96,North,0,0.0,0.2,60,0.00,,,0.06,WUHU216HW,2013-02-17 00:23:00,
2013-02-16 19:28:00,24.8,13.0,29.96,North,0,0.2,0.2,60,0.00,,,0.06,WUHU216HW,2013-02-17 00:28:00,
2013-02-16 19:33:00,24.7,12.8,29.96,North,0,0.0,0.2,60,0.00,,,0.06,WUHU216HW,2013-02-17 00:33:00,
2013-02-16 19:38:00,24.5,12.6,29.96,North,0,0.0,0.0,60,0.00,,,0.06,WUHU216HW,2013-02-17 00:38:00,
2013-02-16 19:43:00,24.5,13.0,29.96,North,0,0.0,0.0,61,0.00,,,0.06,WUHU216HW,2013-02-17 00:43:00,
2013-02-16 19:48:00,24.1,12.6,29.96,North,0,0.0,0.0,61,0.00,,,0.06,WUHU216HW,2013-02-17 00:48:00,
2013-02-16 19:53:00,24.1,12.6,29.96,North,0,0.0,0.0,61,0.00,,,0.06,WUHU216HW,2013-02-17 00:53:00,
2013-02-16 19:58:00,23.9,12.4,29.96,North,0,0.0,0.0,61,0.00,,,0.06,WUHU216HW,2013-02-17 00:58:00,
2013-02-16 20:03:00,23.8,12.6,29.96,North,0,0.0,0.0,62,0.00,,,0.06,WUHU216HW,2013-02-17 01:03:00,
2013-02-16 20:08:00,23.6,12.4,29.96,North,0,0.0,0.0,62,0.00,,,0.06,WUHU216HW,2013-02-17 01:08:00,
2013-02-16 20:13:00,23.4,12.3,29.96,North,0,0.0,0.0,62,0.00,,,0.06,WUHU216HW,2013-02-17 01:13:00,
2013-02-16 20:18:00,23.2,12.4,29.96,North,0,0.0,0.0,63,0.00,,,0.06,WUHU216HW,2013-02-17 01:18:00,
2013-02-16 20:23:00,23.0,12.2,29.96,North,0,0.0,0.0,63,0.00,,,0.06,WUHU216HW,2013-02-17 01:23:00,
2013-02-16 20:28:00,22.9,12.4,29.96,North,0,0.0,0.0,64,0.00,,,0.06,WUHU216HW,2013-02-17 01:28:00,
2013-02-16 20:33:00,22.7,12.2,29.96,North,0,0.0,0.0,64,0.00,,,0.06,WUHU216HW,2013-02-17 01:33:00,
2013-02-16 20:38:00,22.7,12.6,29.96,North,0,0.0,0.0,65,0.00,,,0.06,WUHU216HW,2013-02-17 01:38:00,
2013-02-16 20:43:00,22.5,12.8,29.96,North,0,0.0,0.0,66,0.00,,,0.06,WUHU216HW,2013-02-17 01:43:00,
2013-02-16 20:48:00,22.5,12.8,29.96,North,0,0.0,0.0,66,0.00,,,0.06,WUHU216HW,2013-02-17 01:48:00,
2013-02-16 20:53:00,22.5,12.8,29.95,North,0,0.0,0.0,66,0.00,,,0.06,WUHU216HW,2013-02-17 01:53:00,
2013-02-16 20:58:00,22.3,12.6,29.95,North,0,0.0,0.0,66,0.00,,,0.06,WUHU216HW,2013-02-17 01:58:00,
2013-02-16 21:03:00,22.0,12.2,29.95,North,0,0.0,0.0,66,0.00,,,0.06,WUHU216HW,2013-02-17 02:03:00,
2013-02-16 21:08:00,22.0,12.6,29.95,North,0,0.0,0.0,67,0.00,,,0.06,WUHU216HW,2013-02-17 02:08:00,
2013-02-16 21:13:00,22.1,12.8,29.95,North,0,0.0,0.0,67,0.00,,,0.06,WUHU216HW,2013-02-17 02:13:00,
2013-02-16 21:18:00,22.1,12.8,29.95,North,0,0.0,0.0,67,0.00,,,0.06,WUHU216HW,2013-02-17 02:18:00,
2013-02-16 21:23:00,22.0,12.2,29.95,North,0,0.0,0.0,66,0.00,,,0.06,WUHU216HW,2013-02-17 02:23:00,
2013-02-16 21:28:00,22.0,12.0,29.95,North,0,0.0,0.0,65,0.00,,,0.06,WUHU216HW,2013-02-17 02:28:00,
2013-02-16 21:33:00,21.8,12.2,29.95,North,0,0.0,0.0,66,0.00,,,0.06,WUHU216HW,2013-02-17 02:33:00,
2013-02-16 21:38:00,21.6,12.0,29.95,North,0,0.0,0.0,66,0.00,,,0.06,WUHU216HW,2013-02-17 02:38:00,
2013-02-16 21:43:00,21.6,13.3,29.95,North,0,0.0,0.0,70,0.00,,,0.06,WUHU216HW,2013-02-17 02:43:00,
2013-02-16 21:48:00,21.8,13.1,29.95,North,0,0.0,0.0,69,0.00,,,0.06,WUHU216HW,2013-02-17 02:48:00,
2013-02-16 21:53:00,22.0,13.3,29.94,North,0,0.0,0.0,69,0.00,,,0.06,WUHU216HW,2013-02-17 02:53:00,
2013-02-16 21:58:00,22.0,13.0,29.94,North,0,0.0,0.0,68,0.00,,,0.06,WUHU216HW,2013-02-17 02:58:00,
2013-02-16 22:03:00,22.0,13.3,29.94,North,0,0.0,0.0,69,0.00,,,0.06,WUHU216HW,2013-02-17 03:03:00,
2013-02-16 22:08:00,22.0,13.3,29.94,North,0,0.2,0.2,69,0.00,,,0.06,WUHU216HW,2013-02-17 03:08:00,
2013-02-16 22:13:00,22.0,13.3,29.94,North,0,0.0,0.2,69,0.00,,,0.06,WUHU216HW,2013-02-17 03:13:00,
2013-02-16 22:18:00,22.1,13.5,29.94,North,0,0.0,0.0,69,0.00,,,0.06,WUHU216HW,2013-02-17 03:18:00,
2013-02-16 22:23:00,22.3,13.7,29.94,North,0,0.0,0.0,69,0.00,,,0.06,WUHU216HW,2013-02-17 03:23:00,
2013-02-16 22:28:00,22.7,14.0,29.94,North,0,0.0,0.0,69,0.00,,,0.06,WUHU216HW,2013-02-17 03:28:00,
2013-02-16 22:33:00,22.7,14.0,29.94,North,0,0.0,0.0,69,0.00,,,0.06,WUHU216HW,2013-02-17 03:33:00,
2013-02-16 22:38:00,23.0,14.4,29.94,North,0,0.0,0.0,69,0.00,,,0.06,WUHU216HW,2013-02-17 03:38:00,
2013-02-16 22:43:00,23.2,14.6,29.94,North,0,0.0,0.0,69,0.00,,,0.06,WUHU216HW,2013-02-17 03:43:00,
2013-02-16 22:48:00,23.4,15.1,29.94,North,0,0.0,0.4,70,0.00,,,0.06,WUHU216HW,2013-02-17 03:48:00,
2013-02-16 22:53:00,23.8,15.4,29.94,West,270,0.2,0.4,70,0.00,,,0.06,WUHU216HW,2013-02-17 03:53:00,
2013-02-16 22:58:00,23.9,16.2,29.93,NNW,338,0.4,1.1,72,0.00,,,0.06,WUHU216HW,2013-02-17 03:58:00,
2013-02-16 23:03:00,23.8,16.4,29.93,NNW,338,0.0,1.1,73,0.00,,,0.06,WUHU216HW,2013-02-17 04:03:00,
2013-02-16 23:08:00,23.8,16.7,29.93,NW,315,0.0,1.1,74,0.00,,,0.06,WUHU216HW,2013-02-17 04:08:00,
2013-02-16 23:13:00,23.6,17.5,29.93,NNW,338,0.4,3.4,77,0.00,,,0.06,WUHU216HW,2013-02-17 04:13:00,
2013-02-16 23:18:00,23.4,17.6,29.93,NW,315,0.0,3.4,78,0.00,,,0.06,WUHU216HW,2013-02-17 04:18:00,
2013-02-16 23:23:00,23.4,17.6,29.93,North,0,0.4,0.9,78,0.00,,,0.06,WUHU216HW,2013-02-17 04:23:00,
2013-02-16 23:28:00,23.2,18.0,29.93,NW,315,0.2,0.7,80,0.00,,,0.06,WUHU216HW,2013-02-17 04:28:00,
2013-02-16 23:33:00,23.0,18.4,29.93,NNW,338,0.2,1.1,82,0.00,,,0.06,WUHU216HW,2013-02-17 04:33:00,
2013-02-16 23:38:00,22.9,18.5,29.93,WNW,293,0.4,3.1,83,0.00,,,0.06,WUHU216HW,2013-02-17 04:38:00,
2013-02-16 23:43:00,22.9,18.7,29.93,NNW,338,0.4,3.1,84,0.00,,,0.06,WUHU216HW,2013-02-17 04:43:00,
2013-02-16 23:48:00,22.7,18.5,29.92,NNW,338,3.1,3.1,84,0.00,,,0.06,WUHU216HW,2013-02-17 04:48:00,
2013-02-16 23:53:00,22.7,18.5,29.92,NNW,338,2.7,3.4,84,0.00,,,0.06,WUHU216HW,2013-02-17 04:53:00,
2013-02-16 23:58:00,22.5,18.4,29.92,NNW,338,0.2,3.4,84,0.00,,,0.06,WUHU216HW,2013-02-17 04:58:00,